This is the latest recevied weather packets stored in our database for station/object OK2ZAW-21. If no packets are shown the sender has not sent any weather packets the latest 10 day(s).
| Time | Temp. | Humidity | Pressure | Rain* | Wind** | Luminosity | Snow |
|---|---|---|---|---|---|---|---|
| 1788106325 | 26.11° C | 47% | 1018.6 hPa | - | - | 420 W/m² | - |
| 1788106014 | 26.11° C | 47% | 1018.6 hPa | - | - | 421 W/m² | - |
| 1788105701 | 26.11° C | 46% | 1018.7 hPa | - | - | 421 W/m² | - |
| 1788105390 | 26.11° C | 47% | 1018.7 hPa | - | - | 421 W/m² | - |
| 1788105078 | 24.44° C | 51% | 1018.7 hPa | - | - | 421 W/m² | - |
| 1788104766 | 25° C | 50% | 1018.7 hPa | - | - | 421 W/m² | - |
| 1788104454 | 26.11° C | 47% | 1018.6 hPa | - | - | 421 W/m² | - |
| 1788104142 | 26.11° C | 48% | 1018.8 hPa | - | - | 421 W/m² | - |
| 1788103829 | 26.11° C | 48% | 1018.7 hPa | - | - | 421 W/m² | - |
| 1788103517 | 26.67° C | 46% | 1018.6 hPa | - | - | 421 W/m² | - |
| 1788103205 | 26.67° C | 46% | 1018.6 hPa | - | - | 421 W/m² | - |
| 1788102893 | 27.78° C | 46% | 1018.8 hPa | - | - | 421 W/m² | - |
| 1788102581 | 25.56° C | 52% | 1018.9 hPa | - | - | 421 W/m² | - |
| 1788102269 | 25° C | 53% | 1018.9 hPa | - | - | 421 W/m² | - |
| 1788101958 | 25° C | 52% | 1018.8 hPa | - | - | 421 W/m² | - |
| 1788101646 | 25° C | 53% | 1018.9 hPa | - | - | 421 W/m² | - |
| 1788101334 | 25° C | 52% | 1018.9 hPa | - | - | 421 W/m² | - |
| 1788101022 | 25.56° C | 50% | 1018.8 hPa | - | - | 421 W/m² | - |
| 1788100710 | 26.11° C | 49% | 1018.8 hPa | - | - | 422 W/m² | - |
| 1788100398 | 26.67° C | 48% | 1018.8 hPa | - | - | 421 W/m² | - |
| 1788100086 | 28.33° C | 44% | 1018.8 hPa | - | - | 422 W/m² | - |
| 1788099773 | 27.78° C | 45% | 1018.1 hPa | - | - | 422 W/m² | - |
| 1788099475 | 27.78° C | 47% | 1018.8 hPa | - | - | 422 W/m² | - |
| 1788099149 | 26.11° C | 49% | 1018.9 hPa | - | - | 421 W/m² | - |
| 1788098837 | 26.11° C | 49% | 1018.9 hPa | - | - | 422 W/m² | - |
* Rain since midnight (hover to see other rain measurements)
** Current wind speed in m/s (hover to see current wind gust speed)